CYBC

Baie Comeau  Airport

Baie-Comeau, Quebec, Canada
Issued Wind Visibility Ceiling Temperature Dew Point Humidity Barometer
Nov-19
17:38 UTC
070°
22 KTS
Gust 31 KTS
6 miles Overcast
700' AGL
C
34° F
C
32° F
93% 29.1" Hg
985.6 hPa
IFR
Nov-19
17:06 UTC
080°
24 KTS
Gust 32 KTS
4 miles Broken
700' AGL
C
34° F
C
32° F
93% 29.14" Hg
987 hPa
IFR
Nov-19
16:42 UTC
070°
23 KTS
Gust 31 KTS
3 miles Overcast
700' AGL
C
34° F
C
32° F
93% 29.16" Hg
987.8 hPa
IFR
Nov-19
16:23 UTC
080°
19 KTS
Gust 33 KTS
3 miles Overcast
700' AGL
C
34° F
C
32° F
93% 29.18" Hg
988.5 hPa
IFR
Nov-19
16:03 UTC
070°
21 KTS
Gust 30 KTS
3 miles Broken
900' AGL
C
34° F
C
32° F
93% 29.2" Hg
989 hPa
IFR
Nov-19
15:57 UTC
080°
24 KTS
Gust 34 KTS
2 1/2 miles Broken
900' AGL
C
34° F
C
32° F
93% 29.2" Hg
989.2 hPa
IFR
Nov-19
15:52 UTC
080°
23 KTS
Gust 34 KTS
2 1/2 miles Overcast
1,500' AGL
C
34° F
C
32° F
93% 29.21" Hg
989.4 hPa
IFR
Nov-19
15:44 UTC
080°
23 KTS
Gust 30 KTS
3 miles Overcast
1,500' AGL
C
34° F
C
32° F
93% 29.22" Hg
989.6 hPa
MVFR
Nov-19
15:20 UTC
080°
23 KTS
Gust 35 KTS
4 miles Overcast
1,500' AGL
C
34° F
C
32° F
93% 29.23" Hg
990.1 hPa
MVFR
Nov-19
15:14 UTC
070°
25 KTS
Gust 35 KTS
4 miles Overcast
1,500' AGL
C
34° F
C
32° F
93% 29.23" Hg
990.1 hPa
MVFR
Nov-19
14:57 UTC
080°
24 KTS
Gust 31 KTS
6 miles Overcast
1,500' AGL
C
34° F
C
32° F
93% 29.25" Hg
990.7 hPa
MVFR
Nov-19
14:41 UTC
080°
26 KTS
Gust 37 KTS
5 miles Overcast
1,900' AGL
C
34° F
C
32° F
93% 29.26" Hg
991.1 hPa
MVFR
Nov-19
14:35 UTC
080°
23 KTS
Gust 32 KTS
4 miles Overcast
1,900' AGL
C
34° F
C
32° F
93% 29.27" Hg
991.4 hPa
MVFR
Nov-19
14:23 UTC
080°
20 KTS
Gust 32 KTS
4 miles Overcast
1,900' AGL
C
34° F
C
32° F
93% 29.28" Hg
991.8 hPa
MVFR
Nov-19
14:00 UTC
080°
20 KTS
Gust 29 KTS
4 miles Overcast
2,100' AGL
C
34° F
C
32° F
93% 29.31" Hg
992.8 hPa
MVFR
Nov-19
13:59 UTC
080°
20 KTS
Gust 29 KTS
4 miles Overcast
2,100' AGL
C
34° F
C
32° F
93% 29.31" Hg
992.9 hPa
MVFR
Nov-19
13:50 UTC
080°
22 KTS
Gust 29 KTS
4 miles Overcast
2,100' AGL
C
34° F
-1° C
30° F
87% 29.32" Hg
993 hPa
MVFR
Nov-19
13:42 UTC
080°
22 KTS
Gust 31 KTS
6 miles Overcast
2,100' AGL
C
34° F
-1° C
30° F
87% 29.32" Hg
993.1 hPa
MVFR
Nov-19
13:30 UTC
080°
23 KTS
Gust 32 KTS
7 miles Overcast
2,100' AGL
C
34° F
-1° C
30° F
87% 29.33" Hg
993.3 hPa
MVFR
Nov-19
13:17 UTC
080°
20 KTS
Gust 28 KTS
7 miles Overcast
2,100' AGL
C
34° F
-1° C
30° F
87% 29.33" Hg
993.6 hPa
MVFR
Nov-19
13:00 UTC
070°
21 KTS
Gust 30 KTS
7 miles Overcast
2,300' AGL
C
34° F
-1° C
30° F
87% 29.35" Hg
994 hPa
MVFR
Nov-19
12:44 UTC
080°
18 KTS
Gust 29 KTS
9 miles Overcast
2,300' AGL
C
34° F
-1° C
30° F
87% 29.36" Hg
994.4 hPa
MVFR
Nov-19
12:09 UTC
070°
21 KTS
Gust 31 KTS
6 miles Overcast
700' AGL
C
32° F
-1° C
30° F
93% 29.38" Hg
995.3 hPa
IFR
Nov-19
12:03 UTC
070°
25 KTS
Gust 31 KTS
6 miles Overcast
700' AGL
C
32° F
-1° C
30° F
93% 29.39" Hg
995.3 hPa
IFR
Nov-19
11:40 UTC
080°
21 KTS
Gust 33 KTS
6 miles Overcast
900' AGL
C
32° F
-1° C
30° F
93% 29.4" Hg
995.8 hPa
IFR
Nov-19
11:22 UTC
070°
22 KTS
Gust 29 KTS
6 miles Overcast
900' AGL
C
32° F
-1° C
30° F
93% 29.41" Hg
996.3 hPa
IFR
Nov-19
11:00 UTC
080°
22 KTS
Gust 30 KTS
4 miles Broken
900' AGL
C
32° F
-2° C
28° F
87% 29.42" Hg
996.7 hPa
IFR
Nov-19
10:33 UTC
090°
22 KTS
Gust 28 KTS
5 miles Broken
900' AGL
C
32° F
-2° C
28° F
87% 29.44" Hg
997.3 hPa
IFR
Nov-19
10:08 UTC
080°
20 KTS
Gust 25 KTS
9 miles Broken
1,100' AGL
C
32° F
-2° C
28° F
87% 29.47" Hg
998.1 hPa
MVFR
Nov-19
10:00 UTC
090°
17 KTS
Gust 23 KTS
9 miles Broken
1,100' AGL
C
32° F
-2° C
28° F
87% 29.48" Hg
998.5 hPa
MVFR
Nov-19
09:35 UTC
090°
21 KTS
9 miles Broken
1,100' AGL
C
32° F
-3° C
27° F
80% 29.48" Hg
998.6 hPa
MVFR
Nov-19
09:00 UTC
090°
18 KTS
Gust 24 KTS
9 miles Broken
6,000' AGL
-1° C
30° F
-3° C
27° F
86% 29.49" Hg
999.1 hPa
VFR
Nov-19
08:00 UTC
080°
14 KTS
9 miles Broken
9,000' AGL
-1° C
30° F
-4° C
25° F
80% 29.55" Hg
1001 hPa
VFR
Nov-19
07:00 UTC
090°
11 KTS
9 miles Overcast
13,000' AGL
-1° C
30° F
-5° C
23° F
75% 29.61" Hg
1003 hPa
VFR
Nov-19
06:00 UTC
070°
9 KTS
9 miles Overcast
12,000' AGL
-2° C
28° F
-5° C
23° F
80% 29.6" Hg
1002.6 hPa
VFR
Nov-19
05:00 UTC
060°
5 KTS
9 miles Overcast
9,500' AGL
-3° C
27° F
-5° C
23° F
86% 29.65" Hg
1004.2 hPa
VFR
Nov-19
04:47 UTC
020°
3 KTS
9 miles Overcast
9,500' AGL
-4° C
25° F
-5° C
23° F
93% 29.66" Hg
1004.7 hPa
VFR
Nov-19
04:00 UTC
260°
3 KTS
9 miles Broken
1,500' AGL
-4° C
25° F
-5° C
23° F
93% 29.68" Hg
1005.2 hPa
MVFR
Nov-19
03:00 UTC
9 miles Broken
1,500' AGL
-4° C
25° F
-5° C
23° F
93% 29.67" Hg
1005.1 hPa
MVFR
Nov-19
02:57 UTC
9 miles Broken
1,500' AGL
-4° C
25° F
-5° C
23° F
93% 29.68" Hg
1005.2 hPa
MVFR
Nov-19
02:00 UTC
030°
3 KTS
9 miles Overcast
9,500' AGL
-4° C
25° F
-6° C
21° F
86% 29.7" Hg
1006 hPa
VFR
Nov-19
01:00 UTC
Varies @2 KTS 9 miles Overcast
8,500' AGL
-4° C
25° F
-6° C
21° F
86% 29.74" Hg
1007.5 hPa
VFR
Nov-19
00:00 UTC
270°
3 KTS
9 miles Overcast
9,500' AGL
-4° C
25° F
-6° C
21° F
86% 29.76" Hg
1007.9 hPa
VFR
Nov-18
23:00 UTC
260°
4 KTS
9 miles Overcast
11,000' AGL
-5° C
23° F
-6° C
21° F
93% 29.76" Hg
1007.9 hPa
VFR
Nov-18
22:00 UTC
290°
2 KTS
9 miles   -4° C
25° F
-7° C
19° F
80% 29.76" Hg
1007.9 hPa
VFR
Nov-18
21:00 UTC
290°
3 KTS
9 miles Overcast
9,500' AGL
-3° C
27° F
-7° C
19° F
74% 29.77" Hg
1008.4 hPa
VFR
Nov-18
20:00 UTC
330°
3 KTS
9 miles Broken
11,000' AGL
-2° C
28° F
-6° C
21° F
74% 29.76" Hg
1008 hPa
VFR
Nov-18
19:00 UTC
330°
4 KTS
9 miles Overcast
12,000' AGL
-2° C
28° F
-7° C
19° F
69% 29.77" Hg
1008.4 hPa
VFR
Nov-18
18:00 UTC
320°
3 KTS
9 miles Broken
13,000' AGL
-2° C
28° F
-7° C
19° F
69% 29.78" Hg
1008.7 hPa
VFR